This demonstration page uses our WeatherBlox Daily Observations layout. Learn more.

Left ArrowRight Arrow

34.74481, -87.66753

Hourly Observations for July 19, 2020

Temp ( °F °C ) Dew Point ( °F °C ) Humidity (%) Winds ( mph kmh ) Pressure ( in mb ) Visibility ( mi km ) Precip ( " mm )
12:53 am 00:53 Clear 79 26.1 75 23.9 88 88 Calm 30.03 1017 10 16 0.00 0.00
1:53 am 01:53 Clear 80 26.7 76 24.4 87 87 Calm 30.02 1017 10 16 0.00 0.00
2:53 am 02:53 Clear 78 25.6 75 23.9 90 90 Calm 30.01 1016 10 16 0.00 0.00
3:53 am 03:53 Clear 77 25 74 23.3 90 90 Calm 30.01 1016 9 14 0.00 0.00
4:53 am 04:53 Clear 77 25 74 23.3 90 90 Calm 30.04 1017 9 14 0.00 0.00
5:53 am 05:53 Sunny 76 24.4 73 22.8 91 91 Calm 30.06 1018 9 14 0.00 0.00
6:53 am 06:53 Sunny 79 26.1 75 23.9 88 88 Calm 30.06 1018 10 16 0.00 0.00
7:53 am 07:53 Sunny 83 28.3 76 24.4 79 79 Calm 30.08 1019 10 16 0.00 0.00
8:53 am 08:53 Sunny 87 30.6 75 23.9 67 67 W 6 9 30.08 1019 10 16 0.00 0.00
9:53 am 09:53 Sunny 91 32.8 73 22.8 56 56 W 7 11 30.07 1018 10 16 0.00 0.00
10:53 am 10:53 Sunny 92 33.3 72 22.2 52 52 NNW 6 9 30.06 1018 10 16 0.00 0.00
11:53 am 11:53 Mostly Sunny 94 34.4 71 21.7 48 48 W 9 15 30.05 1018 10 16 0.00 0.00
12:53 pm 12:53 Sunny 94 34.4 72 22.2 49 49 SW 8 13 30.04 1017 10 16 0.00 0.00
1:53 pm 13:53 Sunny 95 35 70 21.1 44 44 W 7 11 30.02 1017 10 16 0.00 0.00
2:53 pm 14:53 Mostly Sunny 97 36.1 71 21.7 43 43 W 6 9 30.01 1016 10 16 0.00 0.00
3:53 pm 15:53 Sunny 96 35.6 66 18.9 37 37 Calm 30.00 1016 10 16 0.00 0.00
4:53 pm 16:53 Sunny 94 34.4 68 20 43 43 W 3 6 29.99 1016 10 16 0.00 0.00
5:53 pm 17:53 Sunny 94 34.4 69 20.6 44 44 S 5 7 29.98 1015 10 16 0.00 0.00
6:53 pm 18:53 Sunny 92 33.3 70 21.1 49 49 WSW 3 6 29.97 1015 10 16 0.00 0.00
7:53 pm 19:53 Sunny 88 31.1 72 22.2 59 59 S 6 9 29.97 1015 10 16 0.00 0.00
8:53 pm 20:53 Mostly Clear 84 28.9 75 23.9 74 74 Calm 29.99 1016 10 16 0.00 0.00
9:53 pm 21:53 Clear 83 28.3 77 25 82 82 Calm 30.00 1016 10 16 0.00 0.00
10:53 pm 22:53 Clear 82 27.8 77 25 85 85 Calm 30.01 1016 10 16 0.00 0.00
11:53 pm 23:53 Clear 81 27.2 77 25 88 88 Calm 30.02 1017 9 14 0.00 0.00

Powered by AerisWeather